{"data":{"norad_id":66371,"epoch":"2026-05-25T05:03:17.155008Z","epoch_age_seconds":57155,"freshness":"FRESH","line1":"1 66371U 25254Z   26145.21061522  .00014641  00000+0  50533-3 0  9992","line2":"2 66371  53.1576 234.6860 0001022  96.9514 263.1603 15.30209982 30722","mean_motion":15.30209982,"eccentricity":0.0001022,"inclination_deg":53.1576,"raan_deg":234.686,"arg_perigee_deg":96.9514,"mean_anomaly_deg":263.1603,"bstar":0.00050533,"rev_number":3072,"period_min":94.104731830197,"perigee_km":474.48485559311,"apogee_km":475.88567466411,"semimajor_km":6853.3222651286,"source":"CELESTRAK","updated_at":"2026-05-25T13:38:21.198668Z"}}